Change the Weather History Date:

Saturday, January 19, 2013

  Actual Average Record
Temperature  
Mean Temperature 62 °F -  
Max Temperature 68 °F 49 °F 68 °F (2013)
Min Temperature 57 °F 38 °F 33 °F (2012)
Degree Days  
Heating Degree Days 2    
Growing Degree Days 12 (Base 50)    
Moisture  
Dew Point 16 °F    
Average Humidity 16    
Maximum Humidity 41    
Minimum Humidity 5    
Precipitation  
Precipitation 0.00 in - - ()
Sea Level Pressure  
Sea Level Pressure 29.79 in    
Wind  
Wind Speed 15 mph ()    
Max Wind Speed 25 mph    
Max Gust Speed 37 mph    
Visibility 6.6 miles    
Events      
Averages and records for this station are not official NWS values.
T = Trace of Precipitation, MM = Missing Value Source: Averaged Metar Reports

Daily Weather History Graph

Daily Weather History Graph

Search for Another Location

Airport or City:

Trip Planner

Search our weather history database for the weather conditions in past years. The results will help you decide how hot, cold, wet, or windy it might be!

Date:

Astronomy

Jan. 19, 2013 Rise Set
Actual Time 6:41 AM EET 4:21 PM EET
Civil Twilight 6:11 AM EET 4:51 PM EET
Nautical Twilight 5:37 AM EET 5:25 PM EET
Astronomical Twilight 5:05 AM EET 5:58 PM EET
Moon 10:37 AM EET (1/19) No Moon Set
Length of Visible Light 10h 40m
Length of Day
9h 40m
First Quarter, 54% of the Moon is Illuminated
Jan 19
First Quarter
Jan 27
Full
Feb 3
Last Quarter
Feb 10
New
Feb 17
First Quarter

Hourly Weather History & Observations

Time (EET) Temp. Dew Point Humidity Pressure Visibility Wind Dir Wind Speed Gust Speed Precip Events Conditions
12:20 AM 62.6 °F 14.0 °F 15% 29.86 in 6.2 mi SSW 17.3 mph - N/A   Mostly Cloudy
12:50 AM 62.6 °F 12.2 °F 14% 29.86 in 6.2 mi SSW 17.3 mph - N/A   Mostly Cloudy
1:20 AM 62.6 °F 12.2 °F 14% 29.86 in 6.2 mi SSW 16.1 mph - N/A   Mostly Cloudy
1:50 AM 62.6 °F 12.2 °F 14% 29.86 in 6.2 mi SSW 18.4 mph - N/A   Scattered Clouds
2:00 AM 63 °F 11 °F 5% 29.86 in 12 mi SSW 18.4 mph - -   Scattered Clouds
2:20 AM 62.6 °F 12.2 °F 14% 29.83 in 6.2 mi SSW 24.2 mph - N/A   Scattered Clouds
2:50 AM 62.6 °F 12.2 °F 14% 29.83 in 6.2 mi SSW 20.7 mph - N/A   Scattered Clouds
3:20 AM 62.6 °F 12.2 °F 14% 29.83 in 6.2 mi SSW 21.9 mph - N/A   Scattered Clouds
3:50 AM 62.6 °F 12.2 °F 14% 29.83 in 6.2 mi SW 20.7 mph - N/A   Scattered Clouds
4:20 AM 62.6 °F 12.2 °F 14% 29.80 in 6.2 mi SW 20.7 mph - N/A   Scattered Clouds
4:50 AM 62.6 °F 12.2 °F 14% 29.80 in 6.2 mi SSW 25.3 mph 36.8 mph N/A   Scattered Clouds
5:20 AM 62.6 °F 10.4 °F 13% 29.80 in 6.2 mi SSW 20.7 mph 32.2 mph N/A   Scattered Clouds
5:50 AM 62.6 °F 12.2 °F 14% 29.80 in 6.2 mi SSW 19.6 mph - N/A   Scattered Clouds
6:20 AM 64.4 °F 10.4 °F 12% 29.80 in 6.2 mi SW 16.1 mph - N/A   Mostly Cloudy
6:50 AM 64.4 °F 10.4 °F 12% 29.80 in 6.2 mi SW 16.1 mph - N/A   Mostly Cloudy
7:20 AM 64.4 °F 10.4 °F 12% 29.80 in 6.2 mi SW 15.0 mph - N/A   Mostly Cloudy
7:50 AM 64.4 °F 10.4 °F 12% 29.80 in 6.2 mi SW 16.1 mph - N/A   Mostly Cloudy
8:00 AM 65 °F 10 °F 5% 29.82 in 12 mi SW 16.1 mph - -   Partly Cloudy
8:20 AM 64.4 °F 12.2 °F 13% 29.83 in 6.2 mi SW 19.6 mph 32.2 mph N/A   Mostly Cloudy
8:50 AM 64.4 °F 12.2 °F 13% 29.80 in 6.2 mi SSW 21.9 mph 36.8 mph N/A   Mostly Cloudy
9:20 AM 66.2 °F 15.8 °F 14% 29.83 in 6.2 mi SSW 20.7 mph 34.5 mph N/A   Mostly Cloudy
9:50 AM 66.2 °F 15.8 °F 14% 29.80 in 6.2 mi SSW 23.0 mph - N/A   Mostly Cloudy
10:20 AM 66.2 °F 17.6 °F 15% 29.80 in 6.2 mi SSW 23.0 mph 35.7 mph N/A   Mostly Cloudy
10:50 AM 66.2 °F 17.6 °F 15% 29.77 in 6.2 mi SSW 16.1 mph 28.8 mph N/A   Mostly Cloudy
11:20 AM 68.0 °F 17.6 °F 15% 29.77 in 6.2 mi SSW 16.1 mph - N/A   Mostly Cloudy
11:50 AM 68.0 °F 17.6 °F 15% 29.74 in 6.2 mi SSW 12.7 mph 24.2 mph N/A   Mostly Cloudy
12:20 PM 57.2 °F 33.8 °F 41% 29.74 in 6.2 mi WNW 6.9 mph - N/A   Mostly Cloudy
12:50 PM 57.2 °F 33.8 °F 41% 29.74 in 6.2 mi West 9.2 mph - N/A   Mostly Cloudy
1:20 PM 68.0 °F 19.4 °F 16% 29.74 in 6.2 mi SSW 12.7 mph - N/A   Mostly Cloudy
1:50 PM 66.2 °F 19.4 °F 17% 29.74 in 6.2 mi SSW 13.8 mph - N/A   Mostly Cloudy
2:00 PM 67 °F 18 °F 7% 29.76 in 12 mi SSW 13.8 mph - -   Partly Cloudy
2:20 PM 66.2 °F 17.6 °F 15% 29.74 in 6.2 mi SSW 19.6 mph - N/A   Mostly Cloudy
2:50 PM 66.2 °F 19.4 °F 17% 29.77 in 6.2 mi SSW 18.4 mph - N/A   Mostly Cloudy
3:20 PM 66.2 °F 17.6 °F 15% 29.77 in 6.2 mi SW 13.8 mph - N/A   Mostly Cloudy
3:50 PM 66.2 °F 17.6 °F 15% 29.77 in 6.2 mi SSW 12.7 mph - N/A   Mostly Cloudy
4:20 PM 64.4 °F 19.4 °F 18% 29.77 in 6.2 mi South 6.9 mph - N/A   Mostly Cloudy
4:50 PM 66.2 °F 17.6 °F 15% 29.77 in 6.2 mi South 10.4 mph - N/A   Mostly Cloudy
5:20 PM 64.4 °F 21.2 °F 19% 29.77 in 6.2 mi South 5.8 mph - N/A   Mostly Cloudy
5:50 PM 60.8 °F 21.2 °F 22% 29.77 in 6.2 mi South 8.1 mph - N/A   Mostly Cloudy
6:20 PM 64.4 °F 17.6 °F 16% 29.77 in 6.2 mi SSW 5.8 mph - N/A   Mostly Cloudy
6:50 PM 62.6 °F 19.4 °F 19% 29.77 in 6.2 mi Variable 4.6 mph - N/A   Mostly Cloudy
7:20 PM 60.8 °F 24.8 °F 25% 29.77 in 6.2 mi Variable 2.3 mph - N/A   Mostly Cloudy
7:50 PM 64.4 °F 15.8 °F 15% 29.74 in 6.2 mi SSW 11.5 mph - N/A   Mostly Cloudy
8:00 PM 65 °F 17 °F 7% 29.76 in 12 mi SSW 11.5 mph - -   Partly Cloudy
8:20 PM 66.2 °F 15.8 °F 14% 29.77 in 6.2 mi SSW 10.4 mph - N/A   Mostly Cloudy
8:50 PM 64.4 °F 15.8 °F 15% 29.77 in 6.2 mi SSW 9.2 mph - N/A   Mostly Cloudy
9:20 PM 64.4 °F 17.6 °F 16% 29.77 in 6.2 mi SSW 9.2 mph - N/A   Mostly Cloudy
9:50 PM 64.4 °F 17.6 °F 16% 29.77 in 6.2 mi SW 6.9 mph - N/A   Mostly Cloudy
10:20 PM 60.8 °F 19.4 °F 20% 29.77 in 6.2 mi SW 4.6 mph - N/A   Mostly Cloudy
10:50 PM 62.6 °F 21.2 °F 20% 29.77 in 6.2 mi SSW 8.1 mph - N/A   Scattered Clouds
11:20 PM 64.4 °F 19.4 °F 18% 29.77 in 6.2 mi SW 9.2 mph - N/A   Scattered Clouds
11:50 PM 64.4 °F 19.4 °F 18% 29.77 in 6.2 mi SSW 16.1 mph 28.8 mph N/A   Scattered Clouds